• In Czech Republic
  • List of Countries
  • For 7 days
  • Water Temperature
  • Satellite Maps
  • Weather Map
  • Weather Widgets
  • user-avatar
    Login

    Hourly Weather Vanadzor

    Today, 18 October, Wednesday

    Time Temperature Precipitation Wind Pressure Humidity
    00:00 +4°C° 0 mm 2 mps 638 mmHg 75%
    01:00 +4°C° 0 mm 2 mps 638 mmHg 75%
    02:00 +4°C° 0 mm 2 mps 638 mmHg 76%
    03:00 +4°C° 0 mm 2 mps 638 mmHg 76%
    04:00 +4°C° 0 mm 2 mps 638 mmHg 76%
    05:00 +3°C° 0 mm 2 mps 637 mmHg 76%
    06:00 +3°C° 0 mm 2 mps 637 mmHg 77%
    07:00 +7°C° 0 mm 1 mps 638 mmHg 69%
    08:00 +9°C° 0 mm 1 mps 639 mmHg 61%
    09:00 +11°C° 0 mm 1 mps 639 mmHg 54%
    10:00 +12°C° 0 mm 1 mps 640 mmHg 50%
    11:00 +13°C° 0 mm 1 mps 640 mmHg 47%
    12:00 +14°C° 0 mm 2 mps 640 mmHg 43%
    13:00 +14°C° 0 mm 2 mps 640 mmHg 44%
    14:00 +14°C° 0 mm 2 mps 640 mmHg 44%
    15:00 +15°C° 0 mm 2 mps 639 mmHg 45%
    16:00 +13°C° 0 mm 2 mps 639 mmHg 54%
    17:00 +11°C° 0 mm 1 mps 639 mmHg 62%
    18:00 +9°C° 0 mm 1 mps 638 mmHg 71%
    19:00 +8°C° 0 mm 1 mps 638 mmHg 75%
    20:00 +8°C° 0 mm 1 mps 639 mmHg 79%
    21:00 +7°C° 0 mm 1 mps 639 mmHg 83%
    22:00 +7°C° 0 mm 1 mps 639 mmHg 85%
    23:00 +6°C° 0 mm 1 mps 639 mmHg 87%

    Tomorrow, 19 October, Thursday

    Time Temperature Precipitation Wind Pressure Humidity
    00:00 +6°C° 0 mm 1 mps 639 mmHg 89%
    01:00 +6°C° 0 mm 1 mps 639 mmHg 90%
    02:00 +5°C° 0 mm 1 mps 639 mmHg 91%
    03:00 +5°C° 0 mm 1 mps 638 mmHg 92%
    04:00 +5°C° 0 mm 1 mps 638 mmHg 92%
    05:00 +5°C° 0 mm 1 mps 638 mmHg 92%
    06:00 +4°C° 0 mm 1 mps 638 mmHg 92%
    07:00 +6°C° 0 mm 1 mps 639 mmHg 82%
    08:00 +8°C° 0 mm 1 mps 639 mmHg 73%
    09:00 +10°C° 0 mm 1 mps 640 mmHg 64%
    10:00 +11°C° 0 mm 1 mps 640 mmHg 58%
    11:00 +13°C° 0 mm 1 mps 640 mmHg 52%
    12:00 +14°C° 0 mm 2 mps 640 mmHg 46%
    13:00 +14°C° 0 mm 2 mps 640 mmHg 46%
    14:00 +14°C° 0 mm 2 mps 639 mmHg 46%
    15:00 +14°C° 0 mm 2 mps 639 mmHg 46%
    16:00 +13°C° 0 mm 1 mps 638 mmHg 53%
    17:00 +11°C° 0 mm 1 mps 638 mmHg 60%
    18:00 +8°C° 0 mm 0 mps 637 mmHg 67%
    19:00 +8°C° 0 mm 0 mps 637 mmHg 68%
    20:00 +7°C° 0 mm 0 mps 637 mmHg 68%
    21:00 +7°C° 0 mm 0 mps 637 mmHg 68%
    22:00 +8°C° 0 mm 1 mps 637 mmHg 66%
    23:00 +8°C° 0 mm 1 mps 637 mmHg 64%

    Day after tomorrow, 20 October, Friday

    Time Temperature Precipitation Wind Pressure Humidity
    00:00 +7°C° 0 mm 1 mps 637 mmHg 62%
    01:00 +7°C° 0 mm 1 mps 637 mmHg 60%
    02:00 +7°C° 0 mm 1 mps 636 mmHg 57%
    03:00 +7°C° 0 mm 1 mps 636 mmHg 55%
    04:00 +7°C° 0 mm 1 mps 636 mmHg 54%
    05:00 +6°C° 0 mm 1 mps 636 mmHg 52%
    06:00 +6°C° 0 mm 1 mps 636 mmHg 51%
    07:00 +8°C° 0 mm 1 mps 636 mmHg 47%
    08:00 +10°C° 0 mm 1 mps 637 mmHg 43%
    09:00 +12°C° 0 mm 1 mps 638 mmHg 39%
    10:00 +14°C° 0 mm 1 mps 638 mmHg 37%
    11:00 +15°C° 0 mm 2 mps 638 mmHg 35%
    12:00 +16°C° 0 mm 2 mps 638 mmHg 33%
    13:00 +16°C° 0 mm 2 mps 638 mmHg 33%
    14:00 +16°C° 0 mm 2 mps 638 mmHg 33%
    15:00 +16°C° 0 mm 1 mps 637 mmHg 34%
    16:00 +14°C° 0 mm 1 mps 637 mmHg 40%
    17:00 +12°C° 0 mm 1 mps 636 mmHg 45%
    18:00 +9°C° 0 mm 0 mps 636 mmHg 51%
    19:00 +9°C° 0 mm 0 mps 636 mmHg 52%
    20:00 +10°C° 0 mm 1 mps 636 mmHg 53%
    21:00 +9°C° 0 mm 1 mps 636 mmHg 54%
    22:00 +9°C° 0 mm 1 mps 636 mmHg 54%
    23:00 +9°C° 0 mm 1 mps 636 mmHg 55%

    21 October, Saturday

    Time Temperature Precipitation Wind Pressure Humidity
    00:00 +8°C° 0 mm 1 mps 636 mmHg 55%
    01:00 +8°C° 0 mm 1 mps 636 mmHg 55%
    02:00 +8°C° 0 mm 1 mps 636 mmHg 55%
    03:00 +8°C° 0 mm 1 mps 636 mmHg 55%
    04:00 +7°C° 0 mm 1 mps 636 mmHg 55%
    05:00 +7°C° 0 mm 1 mps 635 mmHg 55%
    06:00 +7°C° 0 mm 1 mps 635 mmHg 55%
    07:00 +9°C° 0 mm 1 mps 636 mmHg 50%
    08:00 +11°C° 0 mm 1 mps 637 mmHg 45%
    09:00 +13°C° 0 mm 1 mps 637 mmHg 40%
    10:00 +14°C° 0 mm 1 mps 637 mmHg 38%
    11:00 +15°C° 0 mm 2 mps 637 mmHg 36%
    12:00 +16°C° 0 mm 2 mps 637 mmHg 34%
    13:00 +16°C° 0 mm 2 mps 637 mmHg 35%
    14:00 +16°C° 0 mm 2 mps 637 mmHg 35%
    15:00 +16°C° 0 mm 2 mps 636 mmHg 36%
    16:00 +14°C° 0 mm 1 mps 636 mmHg 42%
    17:00 +12°C° 0 mm 1 mps 636 mmHg 48%
    18:00 +9°C° 0 mm 0 mps 635 mmHg 54%
    19:00 +9°C° 0 mm 0 mps 635 mmHg 56%
    20:00 +9°C° 0 mm 0 mps 635 mmHg 57%
    21:00 +9°C° 0 mm 1 mps 635 mmHg 59%
    22:00 +9°C° 0 mm 1 mps 635 mmHg 60%
    23:00 +9°C° 0 mm 1 mps 635 mmHg 61%

    22 October, Sunday

    Time Temperature Precipitation Wind Pressure Humidity
    00:00 +8°C° 0 mm 1 mps 635 mmHg 62%
    01:00 +8°C° 0 mm 1 mps 635 mmHg 62%
    02:00 +7°C° 0 mm 1 mps 635 mmHg 62%
    03:00 +7°C° 0 mm 1 mps 634 mmHg 62%
    04:00 +7°C° 0 mm 1 mps 634 mmHg 60%
    05:00 +7°C° 0 mm 1 mps 634 mmHg 59%
    06:00 +6°C° 0 mm 1 mps 634 mmHg 58%
    07:00 +8°C° 0 mm 1 mps 635 mmHg 52%
    08:00 +10°C° 0 mm 1 mps 635 mmHg 46%
    09:00 +12°C° 0 mm 1 mps 636 mmHg 40%
    10:00 +13°C° 0 mm 1 mps 636 mmHg 39%
    11:00 +14°C° 0 mm 2 mps 636 mmHg 37%
    12:00 +15°C° 0 mm 2 mps 636 mmHg 35%
    13:00 +15°C° 0 mm 2 mps 636 mmHg 36%
    14:00 +15°C° 0 mm 2 mps 635 mmHg 36%
    15:00 +15°C° 0 mm 2 mps 635 mmHg 36%
    16:00 +13°C° 0 mm 1 mps 635 mmHg 43%
    17:00 +11°C° 0 mm 1 mps 634 mmHg 50%
    18:00 +10°C° 0 mm 1 mps 634 mmHg 57%
    19:00 +9°C° 0 mm 1 mps 634 mmHg 60%
    20:00 +9°C° 0 mm 1 mps 634 mmHg 64%
    21:00 +8°C° 0 mm 1 mps 634 mmHg 68%
    22:00 +8°C° 0 mm 1 mps 634 mmHg 71%
    23:00 +8°C° 0 mm 1 mps 634 mmHg 74%

    23 October, Monday

    Time Temperature Precipitation Wind Pressure Humidity
    00:00 +7°C° 0 mm 1 mps 634 mmHg 77%
    01:00 +7°C° 0 mm 1 mps 635 mmHg 81%
    02:00 +7°C° 0 mm 1 mps 635 mmHg 84%
    03:00 +6°C° 0 mm 1 mps 635 mmHg 87%
    04:00 +6°C° 0 mm 1 mps 635 mmHg 88%
    05:00 +6°C° 0 mm 1 mps 635 mmHg 90%
    06:00 +5°C° 0 mm 1 mps 635 mmHg 91%
    07:00 +6°C° 0 mm 1 mps 636 mmHg 83%
    08:00 +8°C° 0 mm 1 mps 636 mmHg 75%
    09:00 +9°C° 0 mm 1 mps 637 mmHg 66%
    10:00 +9°C° 0 mm 2 mps 637 mmHg 60%
    11:00 +10°C° 0 mm 2 mps 637 mmHg 54%
    12:00 +13°C° 0 mm 2 mps 638 mmHg 47%
    13:00 +12°C° 0 mm 2 mps 637 mmHg 49%
    14:00 +12°C° 0 mm 2 mps 637 mmHg 51%
    15:00 +12°C° 0 mm 2 mps 637 mmHg 53%
    16:00 +10°C° 0 mm 2 mps 637 mmHg 62%
    17:00 +8°C° 0 mm 2 mps 637 mmHg 71%
    18:00 +7°C° 0 mm 2 mps 637 mmHg 81%
    19:00 +7°C° 0 mm 2 mps 637 mmHg 84%
    20:00 +6°C° 0 mm 2 mps 638 mmHg 88%
    21:00 +6°C° 0 mm 2 mps 638 mmHg 91%
    22:00 +6°C° 0 mm 2 mps 638 mmHg 91%
    23:00 +6°C° 0 mm 2 mps 638 mmHg 92%
    Show more